Date,TemperatureHighF,TemperatureAvgF,TemperatureLowF,DewpointHighF,DewpointAvgF,DewpointLowF,HumidityHigh,HumidityAvg,HumidityLow,PressureMaxIn,PressureMinIn,WindSpeedMaxMPH,WindSpeedAvgMPH,GustSpeedMaxMPH,PrecipitationSumIn
2013-1-1,32,22,10,26,15,4,86,75,60,29.95,29.72,22,5,0,0.01
2013-1-2,22,15,-1,18,8,-10,83,73,58,30.20,29.89,11,3,0,0.00
2013-1-3,28,11,-8,22,4,-15,83,75,66,30.20,29.89,8,1,0,0.00
2013-1-4,34,30,27,23,20,16,77,66,56,29.91,29.79,17,5,0,0.00
2013-1-5,32,30,27,23,20,16,75,66,54,30.20,29.88,20,5,0,0.00
2013-1-6,37,33,29,30,25,19,85,73,64,30.06,29.83,11,3,0,0.00
2013-1-7,35,26,18,30,20,12,88,79,70,30.32,29.93,12,4,0,0.00
2013-1-8,40,30,22,22,20,15,77,65,49,30.30,30.15,11,3,0,0.00
2013-1-9,46,36,24,31,24,18,77,63,47,30.27,29.89,21,7,0,0.00
2013-1-10,38,33,23,26,22,18,81,65,50,30.50,30.14,17,5,0,0.00
2013-1-11,40,33,23,35,26,18,84,76,53,30.45,29.96,14,6,0,0.11
2013-1-12,46,42,38,43,38,35,100,89,81,30.03,29.97,11,4,0,0.00
2013-1-13,54,48,39,51,45,39,100,90,71,30.00,29.78,19,6,0,0.00
2013-1-14,53,38,30,49,31,19,90,76,62,30.28,29.74,20,6,0,0.00
2013-1-15,31,29,28,22,20,18,78,70,59,30.31,30.16,6,1,0,0.00
2013-1-16,33,30,27,27,24,20,89,80,70,30.14,29.74,9,2,0,0.02
2013-1-17,34,27,18,26,15,3,81,63,48,30.12,29.78,25,5,0,0.00
2013-1-18,25,16,6,9,3,-9,70,56,36,30.36,30.07,10,3,0,0.00
2013-1-19,47,37,25,23,15,8,51,40,34,30.12,29.62,20,7,0,0.00
2013-1-20,46,32,16,32,17,7,87,56,36,29.96,29.38,28,8,0,0.06
2013-1-21,23,16,10,17,12,6,86,82,67,29.98,29.76,6,1,0,0.07
2013-1-22,14,10,4,10,2,-5,84,70,51,30.09,29.75,13,5,0,0.01
2013-1-23,4,-2,-11,-2,-10,-19,76,69,59,30.19,30.07,10,2,0,0.00
2013-1-24,10,0,-12,4,-8,-19,78,69,51,30.37,30.12,12,4,0,0.00
2013-1-25,15,8,1,4,-2,-8,77,65,47,30.39,30.03,8,1,0,0.02
2013-1-26,15,7,-1,4,0,-7,79,71,52,30.32,30.02,9,2,0,0.00
2013-1-27,21,12,0,8,3,-6,81,67,43,30.51,30.32,8,1,0,0.00
2013-1-28,36,25,17,35,18,5,97,77,52,30.40,29.84,12,4,0,0.19
2013-1-29,46,37,31,45,36,30,100,94,78,30.02,29.82,19,4,0,0.22
2013-1-30,60,53,45,54,49,40,94,84,76,29.81,29.10,20,10,0,0.31
2013-1-31,54,34,23,50,24,11,89,67,48,29.58,28.86,27,10,0,0.29
2013-2-1,22,18,15,14,10,6,84,70,53,30.11,29.58,17,7,0,0.00
2013-2-2,19,16,12,9,7,4,82,69,53,30.13,29.95,10,3,0,0.00
2013-2-3,26,18,7,16,7,-100,83,69,50,29.95,29.72,8,-19,0,0.00
2013-2-4,19,16,11,15,11,6,84,78,67,29.88,29.73,13,4,0,0.00
2013-2-5,24,16,6,15,-2,-100,83,61,51,29.95,29.80,4,-94,0,0.00
2013-2-6,27,22,12,21,11,0,84,65,36,30.31,29.81,17,4,0,0.01
2013-2-7,25,16,5,7,3,-2,81,58,41,30.45,30.20,15,4,0,0.00
2013-2-8,27,23,19,22,16,6,89,74,55,30.19,29.76,24,7,0,0.29
2013-2-9,24,15,6,21,9,0,89,76,60,30.36,29.83,13,4,0,0.07
2013-2-10,32,20,10,15,10,6,85,69,36,30.43,30.22,12,3,0,0.00